MicroStrategy Price to Sales Ratio 2010-2023 | MSTR

Historical PS ratio values for MicroStrategy (MSTR) over the last 10 years. The current P/S ratio for MicroStrategy as of February 23, 2024 is . For more information on how our historical price data is adjusted see the Stock Price Adjustment Guide.
MicroStrategy P/S Ratio Historical Data
Date Stock Price TTM Sales per Share Price to Sales Ratio
2024-02-23 687.44 18.75
2023-09-30 328.28 $36.66 8.96
2023-06-30 342.42 $38.64 8.86
2023-03-31 292.32 $41.96 6.97
2022-12-31 141.57 $44.16 3.21
2022-09-30 212.26 $45.88 4.63
2022-06-30 164.30 $47.59 3.45
2022-03-31 486.32 $49.65 9.79
2021-12-31 544.49 $51.83 10.51
2021-09-30 578.40 $51.96 11.13
2021-06-30 664.50 $52.41 12.68
2021-03-31 678.80 $50.90 13.34
2020-12-31 388.55 $49.27 7.89
2020-09-30 150.56 $48.64 3.10
2020-06-30 118.29 $47.00 2.52
2020-03-31 118.10 $47.07 2.51
2019-12-31 142.63 $47.13 3.03
2019-09-30 148.37 $45.76 3.24
2019-06-30 143.31 $44.74 3.20
2019-03-31 144.25 $43.81 3.29
2018-12-31 127.75 $43.34 2.95
2018-09-30 140.62 $43.60 3.23
2018-06-30 127.75 $43.97 2.91
2018-03-31 128.99 $43.76 2.95
2017-12-31 131.30 $43.60 3.01
2017-09-30 127.71 $44.08 2.90
2017-06-30 191.67 $44.39 4.32
2017-03-31 187.80 $44.80 4.19
2016-12-31 197.40 $41.03 4.81
2016-09-30 167.44 $41.17 4.07
2016-06-30 175.02 $41.08 4.26
2023-12-31 631.62 $41.94 15.06
2015-12-31 179.29 $45.98 3.90
2015-09-30 196.47 $46.65 4.21
2015-06-30 170.08 $45.84 3.71
2015-03-31 169.19 $47.67 3.55
2014-12-31 162.40 $49.41 3.29
2016-03-31 179.72 $48.50 3.71
2014-09-30 130.84 $52.81 2.48
2014-06-30 140.62 $51.99 2.70
2014-03-31 115.39 $51.64 2.23
2013-12-31 124.24 $50.97 2.44
2013-09-30 103.76 $50.25 2.07
2013-06-30 86.96 $49.84 1.74
2013-03-31 101.08 $49.81 2.03
2012-12-31 93.38 $50.51 1.85
2012-09-30 134.07 $49.35 2.72
2012-06-30 129.86 $49.67 2.61
2011-12-31 108.32 $48.55 2.23
2011-09-30 114.07 $48.14 2.37
2011-06-30 162.68 $47.81 3.40
2011-03-31 134.48 $45.20 2.98
2010-12-31 85.47 $43.09 1.98
2012-03-31 140.00 $38.87 3.60
2010-09-30 86.61 $35.01 2.47
2010-06-30 75.09 $33.59 2.24
2010-03-31 85.07 $31.81 2.67
2009-12-31 94.02 $30.79 3.05
Sector Industry Market Cap Revenue
Computer and Technology Computer Software $12.101B $0.496B
MicroStrategy Incorporated, a leading worldwide provider of business intelligence software, today announced that GT Nexus has selected MicroStrategy to power the customer-facing analytics and reporting capabilities on its Global Logistics portal. The GT Nexus portal is an on demand technology platform that is used by importers, exporters, transportation carriers, suppliers, banks, and other partners to manage goods that are moving around the world. The GT Nexus system captures and stores hard-to-get data associated with global supply chains, and then fuels a range of Web applications that can be used by constituents to lower supply chain costs and improve control. MicroStrategy will help GT Nexus to deliver a wide range of analytics and reporting capabilities to its customers, which include Home Depot, Kmart, Xerox, Weyerhaeuser, and American Eagle Outfitters.
Stock Name Country Market Cap PE Ratio
Microsoft (MSFT) United States $3058.739B 37.22
Oracle (ORCL) United States $305.158B 25.76
Salesforce (CRM) United States $284.253B 54.28
Adobe (ADBE) United States $242.982B 42.03
Intuit (INTU) United States $184.152B 61.78
Synopsys (SNPS) United States $88.289B 63.90
Cadence Design Systems (CDNS) United States $83.188B 75.82
Dassault Systemes SA (DASTY) France $62.779B 41.19
Autodesk (ADSK) United States $54.972B 55.15
ANSYS (ANSS) United States $29.616B 50.12
PTC (PTC) United States $21.445B 63.16
SS&C Technologies Holdings (SSNC) United States $15.975B 15.70
Manhattan Associates (MANH) United States $15.286B 88.05
Open Text (OTEX) Canada $10.555B 11.35
Descartes Systems Group (DSGX) Canada $7.331B 65.78
Trend Micro (TMICY) Japan $6.711B 59.55
Pegasystems (PEGA) United States $5.429B 74.37
CommVault Systems (CVLT) United States $4.110B 73.34
Blackbaud (BLKB) United States $3.645B 32.38
ACI Worldwide (ACIW) United States $3.322B 20.24
Progress Software (PRGS) United States $2.405B 15.14
Verint Systems (VRNT) United States $1.920B 20.05
Sapiens (SPNS) Israel $1.643B 23.27
PROS Holdings (PRO) United States $1.586B 0.00
BlackBerry (BB) Canada $1.561B 0.00
Simulations Plus (SLP) United States $0.834B 61.40
Rand Worldwide (RWWI) United States $0.554B 0.00
Magic Software Enterprises (MGIC) Israel $0.522B 10.32
Canaan (CAN) China $0.357B 0.00
American Software (AMSWA) United States $0.352B 28.61
OptimizeRx (OPRX) United States $0.276B 0.00
Rigetti Computing (RGTI) United States $0.225B 0.00
Smith Micro Software (SMSI) United States $0.059B 0.00
Wetouch Technology (WETH) $0.039B 0.00
Icad Inc (ICAD) United States $0.036B 0.00
NetSol Technologies (NTWK) United States $0.033B 0.00
Hanryu Holdings (HRYU) South Korea $0.023B 0.00
Neonode (NEON) Sweden $0.023B 0.00
GSE Systems (GVP) United States $0.006B 0.00
SAP SE (SAP) Germany $0.000B 47.94